Regional Weather Roundup
Issued by NWS

Home | Current Version | Previous Version | Graphics & Text | Print | Product List | Glossary On
Versions: 1 2 3 4 5 6 7 8 9 10 11 12 13 14 15 16 17 18 19 20 21 22 23 24 25 26 27 28 29 30 31 32 33 34 35 36 37 38 39 40 41 42 43 44 45 46 47 48 49 50
000
ASUS43 KFSD 271602
RWRSD

WEATHER ROUNDUP FOR SOUTH DAKOTA
NATIONAL WEATHER SERVICE SIOUX FALLS SD
1000 AM CST FRI FEB 27 2015

NOTE: "FAIR" INDICATES FEW OR NO CLOUDS BELOW 12,000 FEET WITH NO
SIGNIFICANT WEATHER AND/OR OBSTRUCTIONS TO VISIBILITY.


SDZ001>005-009-010-012>017-271700-
NORTHWEST AND NORTH CENTRAL SOUTH DAKOTA

CITY           SKY/WX    TMP DP  RH WIND       PRES   REMARKS
BUFFALO          N/A      6  -1  73 SE16      30.07F WCI -12
FAITH            N/A      8   0  69 S18       30.26F WCI -11
MOBRIDGE       SUNNY      2  -4  76 SE8       30.37F WCI -12
$$

SDZ012>016-024>037-041>051-057-063-072>074-271700-
SOUTHWEST AND SOUTH CENTRAL SOUTH DAKOTA

CITY           SKY/WX    TMP DP  RH WIND       PRES   REMARKS
RAPID CTY ARPT SUNNY      8   0  69 S16       30.19F WCI -10
PIERRE         SUNNY      9   2  73 SE6       30.42F WCI  -1
CUSTER         PTSUNNY    6   1  80 S8G18     29.98F WCI  -7
ELLSWORTH AFB  MOSUNNY    8   0  68 S17       30.16F WCI -10
PHILIP         SUNNY     11   2  67 S7        30.34F WCI   0
PINE RIDGE     MOSUNNY   13   3  64 S13       30.22F WCI  -2
WINNER         FAIR      11  -1  58 SW9       30.43S WCI  -2
$$

SDZ004>011-016>023-039-040-271700-
NORTHEAST SOUTH DAKOTA

CITY           SKY/WX    TMP DP  RH WIND       PRES   REMARKS
ABERDEEN       SUNNY     -3 -11  68 S6        30.50F WCI -15
WATERTOWN      SUNNY     -1  -6  79 SW6       30.46S WCI -13
SISSETON         N/A      6  -5  60 NW6       30.49S WCI  -4
$$

SDZ017-020-022-023-036>040-048>070-271700-
SOUTHEAST SOUTH DAKOTA

CITY           SKY/WX    TMP DP  RH WIND       PRES   REMARKS
SIOUX FALLS    SUNNY      3  -5  69 W5        30.54S WCI  -6
HURON          SUNNY      1  -6  72 CALM      30.53S
MITCHELL       SUNNY      9  -1  64 SW3       30.54F
YANKTON        SUNNY      7   0  72 S6        30.58S WCI  -3
$$

ABBREVIATIONS USED IN REMARKS
   TC - TEMPERATURE IN CELSIUS
  WCI - WIND CHILL INDEX
   HX - HEAT INDEX
  VSB - VISIBILITY




USA.gov is the U.S. government's official web portal to all federal, state and local government web resources and services.